When you browse on this site, cookies collect data to enhance your experience and personalize the content and advertising you see.
Visit our Privacy Policy to learn more. By continuing to use the site, you agree to this use of cookies and data.
  • En España
  • Lista de países
  • Para 7 días
  • Temperatura del agua
  • Mapa Satelital
  • El tiempo en el mapa
  • Informadores
  • user-avatar
    Iniciar sesión

    Tiempo cada hora Franceville

    Hoy, 19 Diciembre, Miércoles

    Tiempo Temperatura Precipitaciones Viento Presión Humedad
    00:00 +26°C° 1 mm 1 mps 732 mmHg 88%
    01:00 +25°C° 0 mm 1 mps 732 mmHg 92%
    02:00 +25°C° 0.3 mm 1 mps 732 mmHg 92%
    03:00 +25°C° 0.3 mm 1 mps 732 mmHg 93%
    04:00 +25°C° 0.3 mm 1 mps 732 mmHg 93%
    05:00 +25°C° 0 mm 1 mps 732 mmHg 93%
    06:00 +25°C° 0 mm 1 mps 732 mmHg 93%
    07:00 +26°C° 0 mm 1 mps 733 mmHg 92%
    08:00 +28°C° 0.1 mm 1 mps 733 mmHg 82%
    09:00 +30°C° 0.1 mm 1 mps 733 mmHg 73%
    10:00 +32°C° 0.1 mm 1 mps 733 mmHg 64%
    11:00 +32°C° 0.3 mm 1 mps 732 mmHg 61%
    12:00 +33°C° 0.3 mm 1 mps 732 mmHg 57%
    13:00 +34°C° 0.3 mm 1 mps 731 mmHg 54%
    14:00 +33°C° 0.4 mm 1 mps 731 mmHg 57%
    15:00 +33°C° 0.4 mm 1 mps 730 mmHg 60%
    16:00 +32°C° 0.4 mm 1 mps 730 mmHg 63%
    17:00 +30°C° 0.7 mm 1 mps 730 mmHg 70%
    18:00 +29°C° 0.7 mm 1 mps 730 mmHg 77%
    19:00 +27°C° 0.7 mm 1 mps 731 mmHg 84%
    20:00 +26°C° 0.7 mm 1 mps 731 mmHg 87%
    21:00 +26°C° 0.7 mm 1 mps 732 mmHg 89%
    22:00 +25°C° 0.7 mm 1 mps 732 mmHg 92%
    23:00 +25°C° 0.3 mm 1 mps 732 mmHg 93%

    Mañana, 20 Diciembre, Jueves

    Tiempo Temperatura Precipitaciones Viento Presión Humedad
    00:00 +25°C° 0.3 mm 1 mps 732 mmHg 94%
    01:00 +24°C° 0.3 mm 1 mps 732 mmHg 95%
    02:00 +24°C° 0.3 mm 1 mps 731 mmHg 96%
    03:00 +24°C° 0.3 mm 1 mps 731 mmHg 96%
    04:00 +24°C° 0.3 mm 1 mps 731 mmHg 96%
    05:00 +24°C° 0 mm 1 mps 731 mmHg 95%
    06:00 +24°C° 0 mm 1 mps 731 mmHg 95%
    07:00 +24°C° 0 mm 1 mps 731 mmHg 94%
    08:00 +26°C° 0 mm 1 mps 732 mmHg 85%
    09:00 +28°C° 0 mm 1 mps 732 mmHg 77%
    10:00 +30°C° 0 mm 1 mps 732 mmHg 68%
    11:00 +31°C° 0.1 mm 1 mps 732 mmHg 64%
    12:00 +32°C° 0.1 mm 2 mps 731 mmHg 60%
    13:00 +34°C° 0.1 mm 2 mps 731 mmHg 56%
    14:00 +32°C° 1 mm 2 mps 730 mmHg 64%
    15:00 +31°C° 1 mm 1 mps 730 mmHg 72%
    16:00 +30°C° 1 mm 1 mps 729 mmHg 80%
    17:00 +28°C° 0.8 mm 1 mps 730 mmHg 84%
    18:00 +27°C° 0.8 mm 1 mps 731 mmHg 88%
    19:00 +24°C° 0.8 mm 0 mps 731 mmHg 92%
    20:00 +24°C° 0.4 mm 0 mps 732 mmHg 92%
    21:00 +23°C° 0.4 mm 0 mps 732 mmHg 92%
    22:00 +23°C° 0.4 mm 0 mps 733 mmHg 92%
    23:00 +23°C° 0 mm 0 mps 733 mmHg 93%

    Pasado mañana, 21 Diciembre, Viernes

    Tiempo Temperatura Precipitaciones Viento Presión Humedad
    00:00 +24°C° 0 mm 1 mps 732 mmHg 94%
    01:00 +24°C° 0 mm 1 mps 732 mmHg 95%
    02:00 +24°C° 0 mm 1 mps 731 mmHg 95%
    03:00 +24°C° 0 mm 1 mps 731 mmHg 96%
    04:00 +23°C° 0 mm 1 mps 731 mmHg 97%
    05:00 +24°C° 0 mm 1 mps 731 mmHg 96%
    06:00 +24°C° 0 mm 1 mps 732 mmHg 95%
    07:00 +24°C° 0 mm 1 mps 732 mmHg 94%
    08:00 +26°C° 0 mm 1 mps 732 mmHg 86%
    09:00 +28°C° 0 mm 1 mps 732 mmHg 78%
    10:00 +30°C° 0 mm 1 mps 733 mmHg 70%
    11:00 +31°C° 0 mm 1 mps 732 mmHg 63%
    12:00 +33°C° 0 mm 1 mps 731 mmHg 57%
    13:00 +34°C° 0 mm 1 mps 731 mmHg 50%
    14:00 +34°C° 0.2 mm 1 mps 730 mmHg 53%
    15:00 +33°C° 0.2 mm 1 mps 730 mmHg 55%
    16:00 +32°C° 0.2 mm 2 mps 729 mmHg 58%
    17:00 +30°C° 0.7 mm 1 mps 729 mmHg 68%
    18:00 +28°C° 0.7 mm 1 mps 730 mmHg 79%
    19:00 +26°C° 0.7 mm 1 mps 730 mmHg 90%
    20:00 +25°C° 0.4 mm 1 mps 731 mmHg 90%
    21:00 +25°C° 0.4 mm 1 mps 732 mmHg 91%
    22:00 +23°C° 0.4 mm 0 mps 732 mmHg 91%
    23:00 +25°C° 0 mm 1 mps 732 mmHg 92%

    22 Diciembre, Sábado

    Tiempo Temperatura Precipitaciones Viento Presión Humedad
    00:00 +24°C° 0 mm 1 mps 732 mmHg 93%
    01:00 +24°C° 0 mm 1 mps 731 mmHg 94%
    02:00 +24°C° 0 mm 1 mps 731 mmHg 94%
    03:00 +24°C° 0 mm 1 mps 731 mmHg 94%
    04:00 +24°C° 0 mm 1 mps 730 mmHg 94%
    05:00 +24°C° 0 mm 1 mps 731 mmHg 94%
    06:00 +24°C° 0 mm 1 mps 731 mmHg 94%
    07:00 +24°C° 0 mm 1 mps 731 mmHg 94%
    08:00 +26°C° 0 mm 1 mps 732 mmHg 87%
    09:00 +27°C° 0 mm 1 mps 732 mmHg 81%
    10:00 +28°C° 0 mm 1 mps 732 mmHg 75%
    11:00 +29°C° 0 mm 1 mps 731 mmHg 72%
    12:00 +30°C° 0 mm 1 mps 731 mmHg 68%
    13:00 +31°C° 0 mm 1 mps 730 mmHg 65%
    14:00 +31°C° 0.1 mm 1 mps 729 mmHg 62%
    15:00 +32°C° 0.1 mm 1 mps 729 mmHg 59%
    16:00 +33°C° 0.1 mm 1 mps 728 mmHg 56%
    17:00 +30°C° 0.4 mm 1 mps 729 mmHg 65%
    18:00 +28°C° 0.4 mm 1 mps 729 mmHg 75%
    19:00 +26°C° 0.4 mm 1 mps 730 mmHg 85%
    20:00 +26°C° 1 mm 1 mps 730 mmHg 86%
    21:00 +26°C° 1 mm 1 mps 731 mmHg 87%
    22:00 +25°C° 1 mm 1 mps 731 mmHg 88%
    23:00 +25°C° 0.2 mm 1 mps 731 mmHg 89%

    23 Diciembre, Domingo

    Tiempo Temperatura Precipitaciones Viento Presión Humedad
    00:00 +25°C° 0.2 mm 1 mps 731 mmHg 90%
    01:00 +25°C° 0.2 mm 1 mps 730 mmHg 91%
    02:00 +24°C° 0 mm 1 mps 730 mmHg 92%
    03:00 +24°C° 0 mm 1 mps 730 mmHg 92%
    04:00 +24°C° 0 mm 1 mps 730 mmHg 93%
    05:00 +24°C° 0 mm 1 mps 730 mmHg 92%
    06:00 +24°C° 0 mm 1 mps 731 mmHg 91%
    07:00 +25°C° 0 mm 1 mps 731 mmHg 90%
    08:00 +27°C° 0 mm 1 mps 731 mmHg 81%
    09:00 +29°C° 0 mm 1 mps 731 mmHg 72%
    10:00 +31°C° 0 mm 1 mps 732 mmHg 62%
    11:00 +32°C° 0 mm 1 mps 731 mmHg 57%
    12:00 +33°C° 0 mm 1 mps 730 mmHg 52%
    13:00 +33°C° 0 mm 0 mps 729 mmHg 48%
    14:00 +32°C° 0 mm 0 mps 729 mmHg 48%
    15:00 +34°C° 0 mm 1 mps 728 mmHg 49%
    16:00 +33°C° 0 mm 1 mps 728 mmHg 50%
    17:00 +31°C° 0.1 mm 1 mps 728 mmHg 59%
    18:00 +29°C° 0.1 mm 1 mps 729 mmHg 68%
    19:00 +27°C° 0.1 mm 1 mps 729 mmHg 77%
    20:00 +27°C° 0.3 mm 1 mps 730 mmHg 79%
    21:00 +26°C° 0.3 mm 1 mps 730 mmHg 82%
    22:00 +26°C° 0.3 mm 1 mps 731 mmHg 84%
    23:00 +25°C° 0.1 mm 1 mps 730 mmHg 86%

    24 Diciembre, Lunes

    Tiempo Temperatura Precipitaciones Viento Presión Humedad
    00:00 +25°C° 0.1 mm 1 mps 730 mmHg 88%
    01:00 +25°C° 0.1 mm 1 mps 730 mmHg 89%
    02:00 +25°C° 0 mm 1 mps 730 mmHg 90%
    03:00 +25°C° 0 mm 1 mps 730 mmHg 90%
    04:00 +25°C° 0 mm 1 mps 730 mmHg 90%
    05:00 +25°C° 0 mm 1 mps 730 mmHg 90%
    06:00 +25°C° 0 mm 1 mps 731 mmHg 89%
    07:00 +25°C° 0 mm 1 mps 731 mmHg 89%
    08:00 +27°C° 0 mm 1 mps 731 mmHg 79%
    09:00 +29°C° 0 mm 1 mps 731 mmHg 68%
    10:00 +32°C° 0 mm 1 mps 731 mmHg 58%
    11:00 +33°C° 0 mm 1 mps 731 mmHg 53%
    12:00 +35°C° 0 mm 1 mps 730 mmHg 47%
    13:00 +36°C° 0 mm 1 mps 729 mmHg 41%
    14:00 +35°C° 0 mm 1 mps 729 mmHg 43%
    15:00 +35°C° 0 mm 1 mps 728 mmHg 45%
    16:00 +34°C° 0 mm 1 mps 728 mmHg 47%
    17:00 +32°C° 0 mm 1 mps 728 mmHg 55%
    18:00 +30°C° 0 mm 1 mps 729 mmHg 62%
    19:00 +28°C° 0 mm 1 mps 729 mmHg 69%
    20:00 +27°C° 0.3 mm 1 mps 730 mmHg 75%
    21:00 +27°C° 0.3 mm 1 mps 730 mmHg 80%
    22:00 +26°C° 0.3 mm 1 mps 731 mmHg 86%
    23:00 +25°C° 0.2 mm 1 mps 731 mmHg 88%
    Mostrar más